User: anonymous   Login
Location: Unspecified
(0.0000°N, 0.0000°E)
Time: 00:21:23
(UTC+02:00)
Language:

Sapphire - Orbit

View from above orbital plane
View from above orbital plane
View from above satellite
View from above satellite

Ground track
Ground track

The orbit data is extracted from the following two-line orbital elements,

1 26932U 01043D   16240.86326496 -.00000058 +00000-0 +95895-5 0  9992
2 26932 067.0562 129.9178 0005994 245.3860 114.6617 14.30221374778355
Epoch (UTC): 27 August 2016 20:43:06
Eccentricity: 0.0005994
inclination: 67.0562°
perigee height: 786 km
apogee height: 795 km
right ascension of ascending node: 129.9178°
argument of perigee: 245.3860°
revolutions per day: 14.30221374
mean anomaly at epoch: 114.6617°
orbit number at epoch: 77835

The dashed part of the orbit path shows where the satellite is in the earth's shadow,  

DLR